Погода в Реутово

Россия / Орловская область     53°25′15″N   35°40′48″E
темп.,
°C
ветер,
м/с
пор.,
м/с
влажн.,
%
обл.,
%
осадки,
мм/ч
давл.,
гПа
погр.,
м
6 мая, чт
чт600:00+9ю5139197 0.1 1009307
03:00+8ю41392100 0.1 1008320
06:00+10ю71676100 0.1 1007664
09:00+11ююз81669100 0.1 10071214
12:00+13ю10186488 0.0 10051570
15:00+10ююз91575100 0.1 10061278
18:00+9зюз5986100 1.1 1008802
21:00+7ююз2592100 1.1 1010108
7 мая, пт
пт700:00+6зюз3892100 0.0 1011234
03:00+5зюз3790100 0.0 1012156
06:00+4зюз3889100 0.0 1013181
09:00+10зюз46560 0.0 1014691
12:00+13юз573826 0.0 10142095
15:00+14ююз5845100 0.0 10132228
18:00+12ююз61059100 0.3 1013533
21:00+9ююв51368100 0.3 1012391
8 мая, сб
сб800:00+9ю61474100 0.3 1011921
03:00+8ююв61591100 3.9 1008888
06:00+9ю71493100 4.6 10051007
09:00+9ю61396100 9.3 1003720
12:00+9зсз4895100 6.3 1003452
15:00+9юз4108969 6.6 1005669
18:00+10зюз711765 0.3 10061186
21:00+4зсз71296100 0.7 1010806
9 мая, вс
вс900:00+5з61080100 0.0 1013890
03:00+2з412932 0.0 1015370
06:00+2з411957 0.0 1017386
09:00+7сз587126 0.0 10191036
12:00+10сз6848100 0.0 10202217
15:00+11ссз5845100 0.0 10222441
18:00+11ссз47505 0.0 10231170
21:00+5сз33685 0.0 102640
10 мая, пн
пн1000:00+4сз337621 0.0 102845
03:00+3сз337759 0.0 103037
06:00+4ссз227339 0.0 103123
09:00+11ссз11535 0.0 1031423
12:00+14юв01405 0.0 10311478
15:00+16вюв12383 0.0 10301788
18:00+15вюв22525 0.0 1030336
21:00+9вюв22630 0.0 103110